Theta_e
297 298 298 297 296 296 297 299 300 300 300 302 301 302 309 318 316 310 311 311 310 314 317 315 314 317 317 313 311 310 312 312 312 311 311 311 310 310 310 309 309 310 310 310 311 311 310 315 319 319 318 319 318 317 321 322 321 322 324 321 323 328 324 321 325 328 327 324 321 317 316 320 325 326 325 326 328 330 332 331 330 329 327 327 326 327 330
297 298 297 297 296 295 297 299 300 301 301 302 302 305 312 316 312 312 313 310 311 315 315 314 315 317 316 315 313 311 310 311 311 310 312 312 310 311 312 310 309 310 310 311 313 314 310 312 317 317 317 318 316 317 321 323 322 322 322 322 324 326 323 321 324 326 327 328 327 322 321 325 326 324 325 325 324 328 327 322 323 326 327 327 328 331 333
297 298 297 296 295 295 297 299 301 301 301 302 302 304 309 312 311 314 313 309 312 315 314 315 315 315 315 314 313 312 311 311 310 310 312 311 309 310 312 311 310 312 313 313 315 316 312 312 315 317 317 318 316 317 319 324 326 324 323 325 326 325 323 322 324 326 327 328 328 326 324 323 322 323 326 325 323 324 323 322 323 322 320 322 329 335 331
297 297 296 295 295 295 298 300 301 302 302 303 302 302 307 314 315 314 312 310 313 312 311 315 316 314 314 313 311 311 312 311 309 309 311 309 308 310 310 310 311 312 314 318 319 317 315 315 315 315 316 317 316 316 318 322 325 325 325 326 328 327 322 321 324 326 326 327 323 319 320 322 323 325 328 327 324 323 326 330 328 324 322 324 330 332 328
297 297 296 295 295 296 299 301 301 303 305 304 303 303 308 312 314 314 312 312 314 313 311 314 314 310 311 311 309 310 312 311 309 309 310 309 309 310 309 309 310 310 312 317 317 315 316 317 315 313 314 316 315 315 317 318 320 325 325 324 329 331 323 319 321 319 318 320 319 316 319 323 322 323 325 325 323 326 334 337 327 323 327 327 326 326 327
297 297 295 295 295 296 299 301 302 304 306 304 305 308 309 307 309 311 309 309 313 312 309 313 314 310 309 310 309 310 311 311 310 309 310 311 310 310 311 309 308 308 309 310 312 314 315 314 313 312 313 315 315 315 318 317 316 322 325 323 329 334 325 318 319 319 316 318 319 319 320 319 315 315 318 319 319 324 333 333 323 323 328 326 324 325 328
297 296 295 294 295 296 299 301 302 304 306 304 304 307 307 307 309 308 306 308 312 310 308 313 315 310 309 311 309 309 310 309 309 308 310 313 311 309 311 310 308 309 309 309 309 312 311 310 310 311 310 312 314 315 318 316 311 318 327 324 324 328 324 320 321 320 318 319 319 319 320 320 316 313 312 313 317 320 323 323 320 322 326 324 324 327 327
297 296 295 294 295 296 299 301 302 303 305 304 304 305 306 308 309 309 311 312 311 312 312 313 314 310 308 309 307 308 309 307 307 308 309 310 309 308 307 307 309 310 309 309 308 308 309 307 307 308 308 310 314 313 314 314 311 315 325 324 322 324 321 318 323 324 320 319 319 320 321 322 320 316 311 311 317 320 320 321 321 323 325 324 325 327 325
297 296 295 294 295 296 299 301 302 303 304 304 304 305 305 305 305 309 316 313 307 309 311 310 311 310 308 308 308 308 308 305 306 308 308 308 308 307 306 306 310 311 309 309 308 307 310 309 307 308 308 309 314 314 313 314 312 315 323 324 324 327 321 317 323 327 322 318 319 321 322 323 323 320 313 311 315 317 317 318 318 321 325 326 326 328 323
297 296 295 294 295 296 298 301 302 303 304 303 305 306 305 305 304 307 314 311 304 306 309 308 310 308 305 307 309 308 307 306 306 307 307 308 307 306 306 306 308 308 308 309 307 305 307 308 307 307 306 307 311 312 311 312 310 312 321 323 322 325 323 320 324 327 323 318 319 321 323 324 323 317 311 311 312 313 314 315 315 316 320 324 326 325 320
297 296 295 294 295 296 298 300 302 303 303 303 305 305 304 306 307 310 317 312 302 303 309 309 309 307 304 305 306 306 308 308 307 305 307 310 308 305 306 306 305 307 309 307 304 302 302 304 305 305 304 305 308 308 309 310 308 310 319 324 322 321 324 324 324 325 322 317 317 320 323 324 319 312 309 310 311 312 315 315 313 313 316 318 318 317 315
296 296 295 295 295 296 298 300 302 303 303 304 304 304 303 305 307 313 322 315 302 303 308 305 304 306 304 303 305 306 307 307 305 304 306 310 310 308 307 305 304 308 308 304 303 304 303 303 304 306 307 307 309 310 310 310 310 310 314 320 321 322 324 324 321 321 319 316 317 322 323 320 314 310 309 310 310 311 312 312 311 311 313 313 312 311 309
296 296 295 295 295 296 298 300 302 303 303 304 303 303 304 304 304 311 320 314 304 303 306 303 303 305 304 304 306 306 306 305 304 304 306 308 309 309 307 304 304 306 304 301 303 308 309 309 309 310 312 313 313 314 313 312 311 310 311 316 319 322 324 322 319 318 317 318 319 320 319 315 311 311 309 309 309 310 312 314 312 309 310 310 308 307 305
296 296 296 294 295 296 298 300 302 303 303 303 303 303 304 304 306 310 314 313 305 301 302 303 305 306 304 303 305 307 309 308 306 306 305 305 307 309 307 305 304 302 300 302 307 311 312 314 316 314 314 316 316 315 314 313 312 310 311 313 316 320 322 322 320 316 316 319 318 315 315 314 313 312 309 307 309 308 309 314 313 309 308 307 306 305 304
297 296 296 294 294 296 298 300 302 303 303 303 302 303 304 305 306 305 306 311 309 302 301 303 303 304 303 302 303 306 309 309 307 306 306 304 306 308 305 302 301 299 300 304 311 315 313 314 316 314 313 315 315 313 313 313 312 311 310 310 312 316 319 322 321 316 315 319 318 316 318 316 313 311 307 306 308 307 306 311 313 309 308 306 305 305 304
297 296 296 295 295 296 298 301 302 302 303 303 302 302 302 303 304 300 301 310 312 303 300 300 300 302 303 302 301 302 303 305 305 308 311 310 308 307 302 299 299 301 306 310 313 316 317 312 311 312 313 312 312 312 311 312 314 313 312 312 313 314 317 321 322 318 316 319 319 317 318 314 310 308 306 305 307 305 306 312 315 309 307 307 305 304 304
296 296 296 295 295 296 298 301 302 302 303 302 302 302 300 301 302 298 300 310 310 301 300 302 302 304 304 302 303 301 301 303 303 304 308 308 306 306 303 301 301 303 308 314 315 318 318 312 309 312 311 307 309 312 312 312 314 313 312 314 315 315 317 320 320 316 313 314 314 313 313 311 308 306 305 304 304 304 310 318 316 308 306 307 306 305 306
296 296 296 295 294 296 298 300 301 302 303 302 302 303 301 300 300 298 302 312 311 302 299 299 300 303 302 300 302 301 300 303 302 301 304 306 305 303 301 301 303 303 307 314 317 317 315 310 309 313 311 306 308 311 310 310 311 309 308 311 313 314 314 315 315 313 311 312 313 312 311 308 305 304 303 302 303 309 316 317 311 306 306 307 306 306 305
295 296 296 295 294 296 298 300 301 301 302 302 302 303 302 301 300 298 301 309 310 302 297 296 297 299 298 298 301 300 299 302 302 302 305 306 303 301 300 301 303 303 307 313 314 311 311 308 306 310 311 307 306 308 307 306 307 306 307 309 310 311 312 312 311 311 310 310 311 312 310 306 303 302 302 303 308 314 313 309 305 305 307 307 305 305 304
295 296 296 295 294 295 297 300 301 301 301 302 302 303 302 301 301 299 299 304 307 303 298 297 298 298 298 299 301 301 301 304 304 302 305 305 302 305 308 308 306 304 308 313 310 308 310 308 304 306 308 305 305 307 307 305 304 304 306 309 307 307 310 312 309 308 309 311 311 312 311 307 303 303 305 306 308 309 306 303 304 305 307 307 307 305 303
295 295 295 295 294 295 297 299 301 301 301 301 301 303 303 301 300 300 298 300 306 305 299 297 297 298 298 299 299 300 302 303 301 301 305 305 303 305 309 308 305 304 305 307 307 305 306 306 304 305 305 304 304 306 308 309 307 303 305 308 307 305 308 311 307 305 308 312 310 308 308 305 302 304 306 305 304 303 303 303 303 303 304 306 306 305 303
295 295 295 295 294 294 296 298 301 301 300 301 301 302 303 302 300 301 299 299 303 304 300 299 298 298 299 299 298 299 300 300 299 300 302 303 303 304 304 305 306 303 302 304 306 304 303 305 306 306 305 304 305 305 306 310 311 307 306 308 308 305 305 307 305 303 305 307 307 305 305 303 302 303 303 302 301 301 301 301 301 301 301 303 304 303 302
295 295 295 295 294 294 295 297 300 301 300 301 301 301 303 302 301 301 300 299 301 300 297 298 299 299 300 301 300 299 299 300 300 299 299 302 305 305 303 303 303 302 302 303 303 304 306 306 305 305 304 302 305 307 307 307 308 307 306 306 306 305 304 305 306 304 303 304 304 303 304 303 302 303 302 302 301 300 300 300 300 300 300 300 301 302 301
295 295 295 295 294 294 295 296 299 301 301 300 299 300 302 303 301 301 300 301 305 304 300 301 303 301 299 300 300 299 300 300 300 300 299 300 303 306 304 301 300 303 305 302 298 302 307 305 302 304 303 301 303 308 308 306 305 305 306 306 305 305 305 306 306 304 304 306 305 303 303 302 302 302 302 301 301 301 300 301 300 300 300 299 300 300 300
295 295 295 295 293 294 295 295 298 301 301 299 298 299 301 302 302 303 301 300 306 309 305 303 304 301 298 300 300 299 300 300 299 300 300 298 300 304 301 298 298 300 301 300 299 305 308 303 302 306 304 300 302 305 304 304 303 304 307 306 303 304 306 306 305 304 304 305 303 302 302 302 302 303 302 301 302 301 301 301 300 300 300 299 299 299 299
295 295 295 295 293 294 294 295 297 300 300 298 297 298 300 301 302 303 301 299 303 307 306 304 304 301 299 300 301 299 300 301 299 299 299 298 299 300 297 297 299 298 297 298 303 310 311 305 304 307 304 301 303 304 302 303 304 305 306 303 301 304 306 304 303 304 303 303 302 303 303 302 302 302 302 301 301 301 301 301 301 301 301 300 300 299 299
295 295 295 294 293 294 294 295 297 299 299 297 296 296 297 298 299 301 303 303 304 304 304 303 303 301 299 300 300 299 300 301 299 299 299 297 298 298 297 299 304 306 305 306 306 308 312 308 303 303 301 300 302 302 300 301 304 306 306 302 302 306 307 303 305 307 307 306 305 304 305 304 302 301 301 301 301 301 302 302 302 302 302 302 301 300 298
295 295 295 294 293 294 295 296 298 300 300 298 297 297 296 296 297 299 301 303 305 307 308 306 303 300 299 300 300 299 300 300 300 300 299 298 299 298 295 297 306 310 310 309 306 306 310 306 300 299 299 300 303 303 301 302 306 307 306 302 302 305 305 305 308 308 306 307 307 304 304 305 302 301 301 301 300 301 302 302 301 300 299 299 300 300 299
295 295 295 294 293 294 296 298 299 300 301 301 300 301 299 296 295 298 301 302 303 305 309 309 305 301 301 300 299 299 300 300 300 300 300 298 298 297 294 296 304 307 304 304 306 306 304 301 299 299 297 298 303 305 304 306 307 306 304 302 301 301 301 303 307 306 303 305 307 304 303 303 302 302 303 300 298 299 301 301 299 298 297 296 296 297 297
295 295 294 294 294 294 296 300 300 300 302 302 303 306 306 301 295 296 300 303 301 303 309 311 307 301 299 298 298 299 300 300 300 300 299 297 297 296 294 297 303 304 305 306 305 302 301 301 302 301 298 299 305 307 304 305 305 303 303 304 302 302 302 302 304 306 305 305 304 303 303 303 302 301 300 297 296 297 299 299 297 295 295 295 295 294 295
295 295 294 294 294 294 297 300 300 301 303 303 304 308 310 304 297 295 299 303 301 303 310 311 305 301 302 301 299 298 298 299 299 299 297 297 297 296 296 298 300 301 305 307 303 301 301 301 301 302 301 302 307 307 303 305 306 303 302 303 302 302 303 302 301 302 302 302 302 301 301 301 301 300 300 298 296 296 297 297 295 295 295 295 295 294 294
295 295 294 294 293 295 297 299 299 300 302 303 303 304 304 301 297 296 300 304 302 303 310 310 303 301 304 303 299 298 298 298 298 299 299 299 299 298 298 299 299 299 302 306 305 302 300 298 300 302 300 300 305 309 306 306 306 302 300 301 301 300 301 301 300 300 300 301 302 302 301 300 301 303 302 299 296 296 296 295 295 295 295 294 294 294 294
295 295 294 293 294 296 297 298 299 301 302 302 300 299 298 298 296 297 301 305 301 300 305 309 304 300 301 301 298 297 299 300 301 302 302 298 297 300 301 302 303 301 300 302 302 300 298 300 303 303 299 299 306 311 307 303 301 300 299 301 301 300 300 300 299 299 299 299 301 304 305 303 301 299 298 296 295 296 296 295 295 294 294 294 295 294 292
295 295 294 293 294 296 297 298 300 302 302 300 299 297 297 296 296 298 303 303 300 298 301 305 306 303 300 301 301 299 299 302 304 304 301 297 296 299 303 306 307 304 299 299 301 301 299 302 304 303 301 301 304 306 303 299 299 300 301 300 299 300 301 299 298 299 300 300 300 300 300 299 298 297 296 297 297 295 294 294 294 295 297 299 298 294 291
295 295 294 294 295 296 297 300 302 302 301 301 299 297 297 295 297 301 303 301 301 304 304 303 306 306 303 303 304 300 299 302 302 300 300 299 297 298 303 308 307 301 298 300 304 303 299 300 302 302 301 301 302 302 301 299 299 300 301 300 298 298 300 300 299 300 301 301 301 298 294 294 297 299 300 300 298 295 293 293 293 294 299 301 298 293 291
295 294 294 295 297 298 300 302 302 301 301 300 298 297 297 296 298 301 302 300 302 306 307 306 307 307 305 304 303 299 298 301 302 300 302 303 300 299 306 311 304 299 300 304 305 302 298 299 302 303 301 300 300 298 297 298 300 300 301 301 301 300 300 300 299 300 301 301 302 300 297 297 299 299 298 298 296 293 293 295 294 294 297 300 297 292 290
294 294 296 298 300 301 301 301 301 300 299 298 298 299 298 299 301 302 302 302 301 301 306 309 307 303 302 303 302 300 300 300 301 301 303 303 299 300 306 308 303 302 306 307 301 298 298 301 303 303 300 299 298 296 296 299 301 299 299 301 301 302 302 301 299 300 301 300 300 301 300 300 301 300 298 299 297 294 295 297 296 294 296 298 296 292 291
296 298 299 300 303 305 304 301 299 299 298 298 301 302 300 301 304 304 304 304 302 300 303 307 304 300 301 303 301 299 299 300 301 301 301 300 299 300 302 302 301 304 305 300 296 297 300 302 303 301 298 297 298 297 297 299 299 298 299 300 299 300 302 301 299 300 300 300 300 300 300 300 301 301 300 300 299 296 294 294 293 292 293 294 293 292 292
300 300 300 301 303 305 303 299 297 299 300 299 300 301 299 300 302 302 301 302 302 302 304 306 303 301 304 306 300 297 298 303 306 305 301 298 298 300 301 299 300 303 302 297 296 301 302 300 300 300 299 299 299 298 298 299 300 300 299 298 296 296 297 296 296 297 299 300 300 299 299 299 301 302 302 301 300 297 293 292 292 292 292 292 292 292 292
301 300 301 301 301 300 299 298 299 301 302 301 299 300 300 301 301 301 301 302 301 301 301 302 300 299 302 306 304 299 297 299 303 304 302 299 299 301 301 298 299 303 301 297 298 303 303 300 299 299 299 298 298 298 300 301 302 301 298 294 292 292 293 294 294 295 295 295 295 294 295 296 298 301 301 301 301 300 296 293 291 292 292 292 292 292 293
300 300 300 301 300 298 298 299 299 299 300 301 300 299 300 299 299 300 303 303 301 299 300 302 302 300 300 304 305 302 297 295 298 303 304 300 299 302 303 298 298 302 301 296 298 304 306 302 300 301 302 302 301 301 301 300 300 300 296 293 292 293 294 294 295 295 294 293 293 294 295 296 296 298 298 296 296 296 295 293 293 293 292 292 292 293 294
299 300 300 300 299 299 298 299 297 296 298 300 300 299 299 299 299 300 302 301 299 299 301 302 302 301 299 299 300 300 298 295 298 304 305 299 297 301 303 299 299 302 300 297 300 305 306 302 300 301 303 303 302 301 300 299 299 300 297 293 292 294 295 295 295 295 295 295 294 295 295 295 295 296 296 295 295 295 295 296 296 295 294 293 293 293 294
300 300 300 300 299 298 298 298 296 296 299 301 300 299 299 299 299 300 300 299 299 300 299 298 299 299 298 297 298 300 298 295 298 304 304 299 298 301 303 301 300 298 298 300 303 304 303 303 302 301 301 301 301 301 300 299 299 300 297 293 293 295 295 295 296 295 295 296 295 295 295 295 295 295 295 295 295 296 296 296 297 296 295 294 294 293 294
300 298 299 300 299 297 298 298 297 296 298 300 300 300 300 299 299 301 301 300 300 300 300 300 302 303 299 298 299 300 297 297 299 301 300 298 299 301 302 301 299 297 298 301 302 299 297 300 301 300 300 301 300 300 301 301 301 300 297 294 294 296 296 295 295 295 295 296 295 295 296 296 296 296 295 295 295 296 295 296 296 295 295 294 293 293 293
299 298 299 300 299 296 297 298 298 298 298 299 301 304 304 302 303 304 303 301 301 300 300 303 307 306 300 298 299 299 300 301 301 300 299 300 301 300 298 299 301 301 300 300 300 298 297 299 301 301 301 301 299 299 301 301 298 297 297 297 296 295 295 295 295 295 296 296 296 296 296 296 295 296 296 295 295 295 295 295 295 295 294 294 294 294 294
298 299 301 300 298 297 297 298 299 299 299 301 304 307 306 305 304 303 301 301 303 302 301 303 307 307 301 298 297 299 303 304 302 299 299 302 301 297 295 296 299 301 300 299 301 301 300 301 303 304 304 303 301 302 304 301 294 293 296 298 296 294 295 296 295 295 296 296 296 296 296 296 296 296 296 296 296 296 296 296 295 295 294 294 294 294 294
297 298 299 299 298 297 297 298 300 299 298 300 304 304 302 302 302 300 299 300 302 302 300 301 302 302 301 299 298 299 302 303 300 297 298 300 300 298 297 298 300 300 300 301 302 303 303 304 306 305 304 305 304 304 304 302 298 297 300 299 295 293 295 295 295 296 296 296 296 296 296 296 296 296 296 296 296 296 296 296 295 295 294 294 294 295 294
298 297 298 299 300 298 297 299 300 298 296 298 300 299 298 300 301 299 299 299 301 302 303 303 301 300 300 300 301 301 301 302 300 298 298 299 299 298 299 301 301 300 300 302 304 304 304 305 305 304 304 305 303 302 303 303 301 302 304 300 294 292 294 295 295 296 296 296 296 296 296 296 296 296 296 296 296 296 296 296 295 295 295 294 294 294 294
298 297 297 299 300 298 296 298 300 299 298 299 300 299 299 301 301 299 299 300 301 300 300 302 304 303 300 299 301 301 300 299 299 299 299 300 300 299 300 301 301 299 297 300 303 305 305 305 306 305 305 304 303 303 303 300 296 295 298 297 294 293 294 295 295 296 296 295 296 296 296 296 296 296 295 296 296 296 296 296 296 296 296 295 295 295 294
296 297 299 300 299 298 297 298 300 300 299 300 301 300 300 301 300 297 297 299 303 303 300 301 304 304 300 299 301 301 300 299 300 300 299 300 300 299 299 301 302 300 298 299 304 307 306 304 304 303 302 302 303 303 301 296 293 292 294 295 295 295 296 296 296 296 296 295 295 296 296 296 296 295 295 296 296 296 296 296 296 296 296 296 296 295 295
297 298 298 298 299 300 301 301 302 301 300 300 301 301 301 303 304 299 295 298 305 308 303 300 302 303 301 301 301 299 298 299 300 299 298 298 299 300 300 301 303 304 303 303 304 305 303 302 303 303 303 303 303 299 295 293 294 294 295 295 296 296 297 297 296 296 296 296 296 296 296 296 296 295 296 296 295 295 296 296 296 296 296 296 296 296 296
300 299 298 296 297 301 302 302 301 301 301 302 302 300 300 303 303 297 294 300 308 307 300 299 302 303 301 300 300 299 298 299 300 298 297 297 299 301 304 305 305 305 305 303 301 300 302 303 302 300 300 301 299 295 293 293 295 295 296 296 297 297 297 297 297 297 297 297 296 296 296 296 296 296 296 296 295 294 295 296 296 296 296 296 296 296 296
Wind_Speed
16 17 16 16 17 17 19 20 18 19 18 14 11 9 3 3 2 2 5 11 4 4 2 2 3 1 2 2 2 1 1 1 2 3 2 1 1 2 1 1 1 2 2 1 2 2 1 1 1 0 1 2 2 4 5 1 3 3 2 2 1 2 3 1 2 4 4 6 6 4 3 4 3 3 2 2 2 3 5 5 4 3 3 2 2 1 5
17 17 16 17 17 18 19 20 18 17 14 11 8 5 1 3 1 2 6 8 1 3 1 2 2 2 3 3 2 2 1 1 1 2 2 2 0 1 1 1 1 1 2 1 1 2 0 1 2 1 2 2 3 6 6 1 2 1 3 3 0 1 1 1 1 3 4 5 5 5 5 4 2 2 4 3 1 4 4 2 3 2 3 4 4 3 4
16 16 17 17 17 18 20 20 19 17 14 9 4 1 1 2 1 1 1 3 1 1 3 3 2 2 2 3 4 4 1 2 1 1 3 2 0 0 2 2 1 1 2 2 2 2 0 0 2 2 2 3 4 7 8 3 3 1 1 3 2 2 1 2 3 3 3 2 2 3 2 2 1 2 5 5 2 3 4 3 4 1 3 2 4 4 3
16 17 17 17 17 18 20 21 19 18 16 7 6 3 0 2 2 1 2 2 3 1 1 4 3 1 1 1 3 2 2 4 2 2 1 2 1 1 2 3 2 2 4 3 3 3 2 1 2 3 3 3 2 6 8 5 4 3 4 6 4 4 2 1 4 4 4 5 5 4 2 1 1 4 6 6 5 3 3 5 3 3 2 1 3 4 3
17 17 16 17 18 19 21 21 19 18 13 4 10 2 1 2 1 2 2 1 2 1 2 3 3 1 2 1 2 2 2 4 3 1 0 1 2 2 2 4 4 2 4 3 2 3 4 4 3 3 3 2 4 7 6 5 8 5 4 5 3 5 3 2 5 3 1 3 4 4 1 4 2 3 6 7 8 6 4 4 3 5 4 2 5 3 6
16 16 16 17 18 19 21 21 19 16 7 8 9 1 2 2 1 2 3 1 1 1 1 2 4 3 1 1 1 2 3 3 2 2 2 3 3 2 2 5 4 2 2 1 2 4 4 4 3 3 4 3 5 8 5 4 9 6 3 3 3 5 2 1 4 3 4 4 4 3 3 4 4 4 5 7 8 6 4 2 2 4 5 3 3 4 5
15 14 16 17 18 19 20 20 19 12 4 7 4 1 0 2 2 1 1 2 3 1 0 3 5 4 2 1 1 1 2 3 3 3 2 4 4 2 1 5 4 3 2 2 1 2 2 3 3 2 3 3 2 4 4 5 7 6 3 3 2 4 2 2 3 3 5 6 6 4 5 4 3 6 7 7 7 6 6 2 1 3 4 4 5 7 4
15 14 15 17 17 20 20 20 19 11 2 3 0 0 1 2 2 1 2 3 1 1 2 3 4 3 3 2 1 0 1 3 4 2 1 1 3 2 2 5 5 1 4 3 2 0 3 2 3 1 2 2 1 1 2 4 7 8 3 2 2 3 2 1 3 3 4 6 6 5 5 5 4 6 9 10 9 7 6 4 2 2 4 6 8 7 3
15 14 15 16 17 19 20 19 18 11 0 4 2 1 1 2 1 2 4 3 3 2 2 3 3 3 3 1 1 1 1 2 3 3 2 3 2 1 1 5 4 2 4 3 3 2 5 5 6 5 4 2 2 2 3 2 4 7 4 2 3 3 3 1 3 3 2 4 5 5 4 5 5 7 11 11 7 4 4 3 3 3 2 8 7 5 1
14 13 14 16 16 18 19 18 17 12 3 3 2 1 2 1 1 2 5 3 3 2 2 3 3 1 1 2 2 2 2 3 1 1 3 1 2 3 2 1 1 3 4 3 5 4 4 7 8 6 4 4 4 3 3 2 2 3 2 2 2 2 3 2 3 2 2 4 4 5 4 3 2 4 7 7 4 3 4 3 5 6 1 4 4 3 4
13 13 14 15 16 17 19 18 16 14 8 3 2 2 2 2 2 3 5 4 2 1 2 3 2 1 1 2 2 2 2 4 3 1 1 3 2 2 2 3 1 2 2 4 4 4 6 7 5 2 2 2 3 4 4 3 3 4 3 1 2 2 4 2 1 2 0 4 4 3 1 1 1 2 4 5 5 4 3 3 6 7 3 2 3 4 6
13 13 14 15 15 16 17 17 16 13 10 7 4 3 3 2 2 3 5 4 1 2 3 1 1 1 2 2 2 3 3 4 3 2 3 4 3 1 2 4 2 2 4 3 4 3 2 2 1 2 2 1 2 3 4 5 5 1 4 3 2 3 3 2 1 2 2 2 3 2 1 1 1 1 4 5 4 4 2 3 6 8 5 6 8 7 7
13 13 14 14 15 15 17 17 15 13 11 8 6 4 2 2 3 3 4 5 1 1 2 0 1 1 2 3 2 4 4 4 4 4 4 3 3 3 2 2 3 3 3 4 5 3 2 2 3 3 4 5 4 4 8 9 8 5 3 1 4 5 4 2 2 2 2 1 2 1 1 2 2 2 5 5 4 5 3 1 6 8 5 6 9 8 8
14 13 13 14 14 15 16 16 14 12 10 8 8 6 2 2 3 2 3 5 1 2 1 1 4 3 3 3 2 3 5 5 4 3 2 2 3 5 3 3 4 4 3 2 3 3 3 1 3 3 4 5 3 4 5 6 6 5 7 4 2 5 4 3 2 1 2 2 1 1 0 1 2 2 4 4 3 3 3 1 3 5 3 5 8 10 8
14 13 12 13 13 14 15 16 13 10 9 8 9 9 6 4 3 2 4 5 3 1 1 0 2 2 2 2 2 3 4 5 4 2 2 1 3 5 4 3 6 6 1 3 2 3 2 2 3 2 1 1 1 1 2 3 4 3 6 5 4 4 3 4 3 1 2 3 2 1 1 1 1 2 4 3 3 3 2 1 2 4 3 4 7 10 9
13 13 13 12 13 13 15 15 13 10 9 9 10 11 10 7 4 4 4 5 5 2 2 3 4 2 1 1 2 2 1 2 2 3 4 4 4 5 4 4 6 4 4 4 2 3 3 2 3 3 2 2 2 1 1 2 4 5 6 7 9 7 4 4 4 2 2 3 2 1 1 1 2 5 7 5 3 2 0 1 2 3 2 2 6 9 9
13 13 13 12 12 13 14 14 12 10 9 10 11 12 12 8 5 5 5 4 4 1 3 3 3 3 2 1 3 1 1 1 1 2 2 3 4 6 7 6 5 2 5 4 2 3 4 2 2 2 1 2 1 2 1 2 2 5 7 8 8 7 5 4 4 3 3 3 2 1 1 0 3 7 9 8 3 1 2 2 2 3 2 2 5 8 7
13 13 12 11 11 12 13 14 13 11 8 8 10 12 12 9 6 6 5 4 4 1 3 3 4 2 2 2 1 1 1 1 2 1 2 3 2 3 5 4 5 3 3 4 3 3 4 2 1 3 1 2 1 2 1 2 2 2 4 4 4 4 3 3 4 3 3 3 3 1 1 1 4 8 10 7 3 1 2 1 2 2 3 3 4 5 4
13 13 11 11 11 11 12 13 13 12 9 7 8 9 11 10 7 6 6 4 4 2 3 3 3 2 2 3 1 1 1 2 2 1 2 3 2 2 3 2 2 3 2 4 3 2 3 2 1 2 2 3 2 2 1 2 1 1 2 2 2 3 3 3 3 2 2 2 3 1 1 1 5 11 10 4 0 0 1 2 2 0 3 5 4 5 5
13 13 11 10 10 10 11 12 13 12 9 7 7 9 11 11 9 9 9 5 4 2 2 3 2 2 2 2 3 2 2 3 2 2 2 2 3 2 4 3 3 3 3 3 3 2 2 1 2 1 3 1 1 3 2 1 0 1 1 1 2 2 2 2 2 1 2 3 3 2 0 2 8 11 7 2 2 1 2 2 3 2 4 5 5 4 5
13 12 11 10 10 9 10 11 12 12 10 7 6 8 10 10 10 11 11 8 6 3 1 2 2 0 1 0 2 4 4 2 1 1 2 4 2 4 3 2 2 1 2 2 2 1 1 1 0 1 2 1 1 2 2 1 2 2 1 3 3 3 2 2 1 1 2 3 3 2 1 4 7 6 2 1 2 2 2 1 3 3 3 4 5 5 5
12 12 10 9 9 8 8 10 11 11 11 8 6 7 8 8 8 9 8 7 6 4 1 0 2 2 2 3 3 3 2 1 2 1 2 1 2 2 4 1 1 1 1 1 2 1 1 2 2 2 2 2 2 2 2 3 2 4 4 3 3 2 2 3 1 1 2 3 2 0 1 4 4 3 1 2 2 2 3 4 4 4 3 3 5 7 6
12 11 10 9 9 8 7 9 10 10 11 10 7 8 9 8 7 7 7 7 7 4 3 3 3 3 4 4 6 7 6 6 6 4 0 1 2 2 1 0 1 1 1 1 2 2 2 2 2 2 2 2 2 3 4 4 2 2 4 4 2 1 2 3 2 2 3 3 2 2 2 4 4 4 3 4 5 5 5 7 6 5 5 5 6 8 8
12 12 11 9 8 7 6 7 9 9 10 10 9 8 10 9 7 7 7 5 4 3 4 5 4 2 3 4 6 9 9 10 10 8 4 2 1 2 2 1 0 1 2 1 2 3 3 2 2 3 3 1 2 3 4 3 2 1 2 3 3 1 3 4 3 2 2 2 2 4 3 3 4 5 5 6 7 6 6 8 7 6 7 8 8 9 9
11 12 11 9 7 7 6 6 7 8 10 10 9 7 9 8 6 5 6 4 2 3 3 3 3 3 2 2 4 7 9 10 10 10 8 4 3 3 1 1 1 2 1 0 2 4 4 3 2 3 3 2 2 2 2 2 1 2 3 2 3 2 3 3 2 3 2 1 3 4 3 2 4 4 4 5 7 8 8 8 8 9 9 10 10 10 9
11 12 10 8 7 6 5 6 6 7 9 11 11 10 11 10 8 6 7 6 4 4 3 1 4 6 7 5 5 8 10 11 11 12 12 9 5 4 5 4 2 3 3 3 4 4 4 3 3 4 3 2 2 3 2 1 1 2 3 1 2 2 3 2 2 3 3 1 1 2 4 5 6 5 4 4 4 7 8 8 9 10 10 10 11 11 10
11 11 9 7 6 5 5 5 6 7 8 10 12 12 12 12 10 7 6 5 3 3 3 1 3 7 7 5 8 12 12 11 13 16 17 15 12 10 9 6 3 4 4 4 4 3 4 4 3 3 2 1 2 3 2 1 3 3 3 2 2 2 2 1 2 4 1 2 2 2 3 2 1 2 4 5 3 5 8 7 7 8 8 8 8 8 9
10 10 8 7 5 4 4 5 5 6 7 8 10 11 13 14 13 9 7 5 4 3 3 2 2 4 3 5 11 13 11 11 14 17 19 19 19 18 15 8 4 3 4 4 3 3 4 4 2 1 1 2 2 3 2 2 4 4 2 3 2 2 3 2 2 3 2 5 5 4 4 3 3 1 2 4 3 3 6 6 5 5 6 8 8 6 5
10 9 8 6 4 3 4 5 5 5 6 5 4 6 8 11 12 10 7 6 6 5 3 1 2 2 0 4 10 12 10 11 14 16 18 20 20 18 14 8 5 3 3 4 4 3 3 2 2 0 1 1 3 2 2 2 4 3 2 4 3 2 3 3 4 4 1 3 4 4 3 2 3 3 1 2 2 3 5 5 5 5 6 8 8 7 7
8 8 8 6 4 3 4 5 4 5 7 5 1 3 4 6 9 9 7 5 5 4 4 3 2 2 2 3 7 12 13 11 13 15 16 15 14 12 10 7 4 3 3 4 3 3 2 1 1 2 3 1 4 3 1 2 2 1 4 5 4 3 2 2 2 3 2 2 3 4 4 4 4 4 3 2 2 4 4 4 5 6 8 9 9 8 9
7 7 6 4 2 3 4 5 4 4 6 5 1 3 2 1 4 7 6 5 4 4 4 3 1 2 3 2 4 10 13 10 9 10 10 8 8 9 10 7 4 4 5 3 2 2 2 1 3 3 3 4 5 4 2 3 3 1 3 4 5 5 3 2 1 2 3 5 5 5 4 3 3 3 2 2 3 5 4 4 7 9 9 11 12 11 11
6 6 5 2 2 4 5 5 5 5 6 4 3 4 3 1 3 5 5 4 4 4 4 3 2 1 2 2 4 9 10 7 6 6 6 6 6 7 9 7 4 3 4 4 2 2 1 0 1 2 3 4 4 3 3 4 4 2 2 4 4 5 4 2 2 3 5 6 7 6 4 1 2 2 2 4 6 8 7 7 9 10 10 10 10 10 11
6 5 3 1 3 5 6 6 7 8 8 7 6 5 4 3 4 4 4 5 4 4 4 3 2 0 1 2 4 9 9 5 4 5 5 5 4 4 5 5 3 4 6 5 2 1 1 1 2 2 3 3 4 4 3 2 1 1 3 3 3 4 4 2 2 4 3 2 3 3 4 6 6 3 3 6 8 8 9 10 10 10 9 8 7 6 7
5 3 1 3 5 6 5 5 7 8 7 6 6 5 5 4 4 4 4 4 4 4 4 3 3 0 2 1 2 6 7 4 2 3 3 4 4 3 2 4 4 4 5 3 2 2 3 2 2 2 3 3 4 4 2 1 3 3 4 4 4 4 3 3 2 1 2 4 4 1 4 6 5 4 6 7 6 6 8 11 11 8 6 5 4 6 6
3 1 3 5 7 6 6 6 6 6 5 5 4 3 4 3 4 5 5 3 3 2 2 2 3 2 2 3 2 5 5 4 2 1 1 2 4 3 2 2 4 3 2 2 2 3 3 2 2 2 2 3 4 2 1 3 4 5 4 4 4 3 3 2 1 3 3 4 4 4 4 5 6 5 4 4 4 5 7 7 7 6 5 5 5 5 6
1 3 6 8 8 8 6 5 5 3 3 3 3 3 3 4 4 6 7 6 5 3 2 1 3 3 2 2 1 4 4 3 1 2 1 2 3 3 3 4 3 2 2 3 3 2 2 2 2 2 3 2 2 1 4 4 2 3 3 3 3 1 1 3 3 1 4 5 5 5 5 5 4 2 1 1 2 3 4 4 4 4 4 6 6 5 6
5 7 9 9 8 6 4 3 3 3 3 2 2 3 3 3 2 4 4 5 6 4 3 3 2 1 3 3 1 3 3 2 1 3 3 2 2 2 3 3 2 1 2 4 3 2 2 2 3 4 2 0 2 4 5 4 3 1 2 3 4 3 3 4 2 4 5 6 6 5 4 5 5 4 3 3 3 1 3 5 6 6 6 6 6 7 10
9 9 8 6 4 3 2 1 2 3 2 2 2 3 3 2 2 2 2 3 4 4 3 4 2 0 2 3 1 2 1 1 2 3 2 0 1 2 3 2 1 1 2 2 2 1 3 4 4 4 1 3 3 3 4 3 4 3 2 2 2 2 2 2 3 6 5 4 3 3 3 4 3 2 3 1 3 4 5 6 7 7 7 7 9 11 12
9 7 4 3 2 1 2 2 2 3 2 2 2 2 2 3 3 2 2 2 2 3 3 3 1 1 2 3 1 2 1 3 3 2 1 0 1 1 2 1 1 3 3 1 3 2 4 3 3 3 2 4 3 3 3 3 1 1 1 2 4 3 0 1 2 3 4 4 5 5 4 4 4 4 4 3 3 6 7 9 11 12 10 9 10 13 12
6 4 3 2 2 2 3 3 3 3 2 2 2 2 1 2 2 1 0 2 2 2 1 2 1 1 2 4 2 1 2 2 2 2 1 0 0 1 2 1 1 3 3 1 2 2 3 1 2 2 0 3 3 4 4 4 3 3 4 4 5 3 2 3 4 2 3 5 5 5 4 5 6 6 5 4 3 4 5 6 8 10 12 11 11 13 14
5 4 3 2 4 5 5 4 3 3 2 2 2 2 1 1 1 1 2 3 1 1 1 2 2 2 2 2 3 2 2 1 2 3 3 1 1 2 3 1 1 3 2 1 2 3 4 2 2 1 3 4 4 4 4 4 4 5 4 4 4 3 5 7 8 6 2 0 1 2 4 5 6 6 5 3 1 1 0 4 7 7 9 11 12 14 14
6 6 6 6 6 5 4 3 3 2 2 2 2 1 1 0 0 1 2 1 1 1 1 1 2 1 1 1 2 2 1 1 1 3 3 1 1 2 3 1 2 3 1 2 1 4 4 2 1 2 4 4 4 4 2 1 3 4 4 4 4 5 7 8 8 6 4 3 2 1 1 2 3 3 3 1 1 2 3 1 5 9 9 9 12 14 13
9 8 7 6 4 3 3 2 2 2 2 2 2 1 1 1 1 1 0 1 0 1 1 0 1 1 1 1 1 1 1 1 1 2 3 1 1 2 3 2 2 2 1 0 3 4 2 1 3 4 4 4 4 4 3 2 3 4 4 3 3 4 5 5 5 4 3 3 2 2 1 1 1 1 0 2 2 3 4 6 8 11 11 10 11 13 13
7 5 4 2 2 2 2 1 0 1 1 1 1 2 1 1 0 1 1 1 0 1 1 1 2 3 1 1 1 1 1 1 2 2 1 1 1 3 3 1 1 0 1 2 3 2 0 2 4 4 4 3 3 4 4 3 3 2 3 4 4 3 2 2 3 3 2 2 1 1 1 2 2 1 1 2 4 6 8 9 10 11 11 9 10 11 12
3 2 3 3 2 1 1 1 1 0 1 1 2 3 4 4 3 2 3 2 2 2 2 2 3 4 1 1 1 1 0 1 2 2 0 1 3 2 1 1 0 1 3 3 2 1 1 2 3 3 3 3 3 3 4 4 3 1 1 3 3 3 3 4 4 5 6 7 6 5 3 3 3 2 2 2 3 4 6 9 10 10 8 7 7 8 10
2 1 3 3 1 1 1 1 1 0 1 2 3 3 4 4 4 4 3 1 3 4 4 2 4 4 2 1 1 1 1 2 2 1 1 3 3 0 1 1 2 3 3 2 1 1 3 4 4 3 3 4 4 3 3 3 2 0 1 1 3 3 4 4 5 6 7 9 9 7 5 6 6 6 6 6 6 5 6 8 8 6 5 6 6 7 8
1 1 3 3 0 1 1 1 2 2 2 2 3 3 4 4 3 2 1 2 3 5 4 2 3 3 2 1 1 1 1 2 2 1 1 3 2 1 1 2 1 1 2 2 2 4 4 4 3 4 4 4 3 3 4 4 2 1 2 3 4 6 6 6 6 6 7 9 10 10 8 7 6 7 8 8 7 7 7 6 6 6 7 7 7 7 8
1 1 2 2 1 1 1 2 2 1 1 1 1 1 2 3 4 2 2 1 3 4 4 3 3 2 2 2 2 1 1 2 2 0 1 2 2 1 2 2 1 1 2 3 4 4 3 3 4 4 4 3 3 3 4 4 3 3 4 4 4 6 7 8 8 8 8 9 10 11 10 8 7 7 7 8 7 7 6 5 4 5 6 7 7 8 9
3 2 1 1 1 1 1 1 2 3 3 3 2 2 3 5 5 2 1 2 3 3 2 3 4 3 1 1 2 2 1 1 1 1 2 3 2 1 1 1 0 1 2 3 4 3 3 4 4 3 3 3 3 3 4 4 4 4 5 5 5 6 7 8 9 10 10 10 10 11 10 9 9 9 8 9 9 9 7 5 3 2 2 3 4 5 7
3 2 1 2 2 1 1 1 4 3 3 3 3 3 3 5 4 1 0 1 2 2 2 3 3 2 1 1 3 2 1 1 1 2 2 1 1 2 2 1 2 3 3 3 3 3 4 3 3 3 3 4 3 3 4 4 4 5 5 6 6 7 7 8 9 10 10 9 8 8 9 9 10 10 10 10 10 10 9 8 7 5 4 5 5 4 4
2 2 1 2 3 3 3 3 4 3 3 3 3 2 2 4 3 1 0 2 3 4 3 1 1 2 3 2 1 1 0 1 2 3 1 1 2 3 2 2 4 4 4 4 3 3 3 3 3 4 4 4 3 3 4 5 5 6 6 6 5 5 6 7 8 8 8 8 7 7 8 9 9 9 9 8 9 9 9 10 11 10 9 8 7 6 5
1 1 1 0 1 2 3 3 3 3 3 3 3 2 2 3 3 3 1 4 4 3 1 1 2 3 3 1 1 1 1 1 2 2 0 1 1 3 4 5 5 4 4 4 3 3 3 3 4 4 5 4 4 4 4 5 6 5 5 5 5 5 6 7 7 8 9 9 9 8 8 8 8 8 7 6 6 8 9 11 11 10 9 8 8 8 8
Wind_Direction
335 334 335 337 343 345 343 342 340 344 351 354 352 350 2 115 96 345 139 158 151 44 49 324 5 163 256 284 243 253 275 274 291 317 345 308 302 358 303 245 240 231 246 271 334 355 329 321 4 57 342 300 268 317 303 235 92 93 158 259 292 97 86 96 284 302 303 298 304 320 358 44 39 355 39 108 147 137 143 174 174 139 155 149 100 247 266
336 336 336 339 345 346 344 343 339 344 351 342 332 341 64 133 100 59 152 183 264 42 155 296 339 280 314 349 318 307 234 224 304 318 314 305 346 18 292 299 325 287 311 327 302 314 324 22 358 62 49 320 306 336 326 260 96 69 192 188 189 55 79 118 81 359 341 336 336 336 349 30 55 316 329 339 95 106 117 131 92 106 205 153 134 224 259
337 336 339 343 347 347 345 342 340 343 340 317 277 256 48 105 81 20 204 220 298 103 177 158 161 267 354 5 325 342 332 265 255 227 273 285 172 145 282 294 301 321 342 338 315 320 221 277 350 25 22 325 324 348 344 4 80 55 148 124 107 113 135 144 139 159 187 201 252 254 266 331 342 326 341 342 7 110 147 131 89 180 246 121 142 211 240
338 338 343 347 349 350 346 342 343 343 331 286 196 186 299 123 101 351 325 348 53 110 174 110 121 223 65 21 322 7 350 306 282 185 231 313 7 34 309 328 5 14 11 360 330 332 320 338 35 31 347 310 304 326 333 7 41 43 61 58 77 108 82 87 124 146 188 198 226 239 201 89 357 330 346 343 326 334 101 97 104 185 172 14 224 199 160
340 341 347 350 353 352 348 347 348 346 338 208 170 154 21 124 122 151 161 342 20 25 358 76 97 149 132 99 334 344 324 318 325 353 328 332 3 33 8 21 38 8 359 3 313 327 350 12 35 12 328 298 301 312 320 12 11 11 51 32 58 103 62 50 96 77 307 244 263 285 61 94 85 356 349 342 332 349 69 106 159 152 121 292 262 185 142
340 343 350 354 357 355 353 354 354 356 18 140 150 75 18 137 158 167 153 168 167 50 360 107 100 77 105 123 6 356 344 347 337 320 330 348 15 57 8 7 26 341 326 325 301 340 12 14 356 346 351 344 335 333 328 3 7 11 37 16 72 112 91 103 105 54 6 348 334 360 80 99 84 53 18 353 348 12 70 138 196 122 127 212 219 134 133
339 346 355 358 0 359 359 1 360 5 75 136 131 41 330 112 114 272 34 107 162 163 57 105 88 64 26 350 16 41 358 350 302 282 346 353 356 78 55 324 327 349 10 89 30 350 42 17 324 329 11 350 355 2 329 324 360 15 26 18 72 108 88 109 115 70 20 3 356 35 85 99 65 42 26 6 0 25 56 62 321 88 124 167 126 101 85
341 350 358 359 4 4 3 4 4 6 131 178 236 264 210 115 145 189 58 65 82 44 42 70 72 36 360 358 348 158 47 343 305 285 114 26 329 40 66 301 294 20 47 54 34 295 153 158 280 226 68 352 48 97 257 284 339 350 359 13 22 84 105 127 100 76 4 352 355 17 63 97 81 37 19 8 6 18 31 34 7 35 106 113 98 94 51
343 350 358 0 7 9 7 6 8 11 349 215 241 349 47 114 163 135 105 70 352 1 37 67 82 32 3 336 297 328 340 308 301 288 227 170 206 292 319 302 299 40 44 11 314 265 178 197 244 220 171 208 210 188 210 201 345 331 331 5 8 64 116 118 76 85 324 334 346 342 18 77 71 31 11 359 1 6 348 353 351 334 119 119 109 114 111
345 350 359 3 8 13 12 9 12 23 35 223 225 3 9 81 63 61 103 84 352 12 52 50 84 104 271 238 263 280 270 293 332 318 311 316 201 242 241 247 315 13 13 321 290 281 226 228 246 232 199 209 215 239 254 195 197 276 308 14 15 86 116 116 91 104 281 316 338 335 5 45 17 359 355 338 322 308 309 336 355 336 323 139 144 152 141
349 353 0 5 8 14 17 15 14 25 38 50 101 61 11 82 101 53 80 79 3 21 75 43 69 108 316 298 282 273 304 335 11 117 288 313 295 259 166 119 62 327 249 234 268 280 253 246 250 231 206 214 232 267 282 266 236 223 201 71 32 76 97 106 106 108 288 317 344 5 46 69 262 286 325 319 309 327 355 32 7 346 356 98 80 93 111
352 357 359 4 10 13 19 22 18 20 32 41 65 69 29 64 114 72 85 107 7 15 73 80 194 187 330 330 273 260 288 312 302 208 223 277 302 326 97 100 80 269 238 256 316 328 270 284 34 70 39 20 278 310 11 12 344 259 175 155 124 110 100 90 77 96 107 345 11 72 170 267 262 296 343 337 322 338 18 71 34 17 43 81 71 67 77
352 357 358 2 11 15 19 26 25 22 27 34 43 53 47 94 105 90 98 111 115 327 105 101 288 305 334 336 311 279 281 283 278 244 217 255 285 304 338 131 180 251 294 326 344 52 88 3 25 53 14 9 359 6 24 6 342 356 40 95 137 134 127 106 84 91 112 65 42 108 210 292 317 347 360 360 355 352 345 46 40 27 34 80 85 80 73
351 354 358 1 9 18 20 25 29 27 28 34 38 47 79 123 105 115 116 104 102 251 145 24 329 338 332 324 336 323 321 336 323 266 216 224 247 261 268 210 234 292 338 13 9 71 105 35 39 38 359 8 17 10 15 345 317 4 26 15 99 124 132 119 84 89 127 115 74 76 219 344 13 12 355 344 337 347 334 308 14 23 46 96 104 104 98
351 351 357 3 10 19 23 26 31 33 35 41 45 55 76 91 90 119 127 115 116 51 55 180 258 286 302 305 13 19 348 348 344 299 292 307 257 252 250 254 293 318 64 122 56 59 96 111 93 70 355 55 93 309 3 338 297 349 29 25 45 79 123 135 116 98 97 102 93 55 24 351 351 316 309 304 278 278 277 255 339 9 60 110 118 119 120
352 351 357 5 11 19 26 29 31 33 40 49 53 57 61 60 69 97 101 103 108 94 271 223 193 159 156 287 2 50 10 309 322 329 331 330 304 290 288 290 308 345 74 78 55 75 69 74 120 129 187 185 171 196 58 6 310 321 1 28 39 41 57 96 93 71 67 93 114 104 138 209 296 306 310 320 297 263 38 77 333 340 15 115 128 126 129
352 352 357 5 13 21 29 32 32 31 34 46 54 55 54 53 64 82 84 87 91 81 248 202 130 85 73 360 331 16 131 271 353 31 323 304 305 310 316 324 330 12 86 70 27 58 71 79 109 96 192 225 152 130 127 29 353 328 339 5 26 26 24 48 64 63 61 80 95 64 66 229 319 315 316 321 302 208 93 50 323 331 18 86 124 125 125
353 353 357 7 14 23 31 34 36 35 33 43 56 56 54 55 65 79 85 92 87 53 256 192 124 73 94 140 213 223 129 12 17 42 294 297 301 300 309 331 340 345 74 85 60 60 76 78 92 103 127 295 54 104 36 18 30 330 332 355 11 13 19 49 78 80 54 67 91 54 330 289 324 318 312 312 302 194 96 36 298 335 60 83 101 104 87
352 352 358 8 16 26 35 36 36 38 41 51 61 58 55 56 67 85 90 93 99 104 258 236 129 129 161 120 89 350 56 55 68 87 13 340 299 279 300 319 338 340 26 70 73 90 88 39 341 115 90 345 4 104 75 22 13 321 349 17 10 11 20 25 51 62 42 76 98 47 279 266 338 325 309 301 43 151 296 309 299 330 102 98 83 74 68
350 352 358 9 17 27 38 40 39 38 41 55 68 65 60 61 71 85 95 105 106 91 296 305 78 147 182 88 75 82 62 42 53 100 105 256 272 19 24 338 324 356 17 48 54 59 90 61 317 75 92 28 34 104 107 141 127 347 30 82 36 23 48 21 3 12 40 57 55 38 208 325 342 336 326 4 55 272 265 313 355 55 104 101 79 64 81
350 351 356 7 18 29 40 43 42 41 40 51 74 73 66 73 90 95 98 107 108 93 344 315 2 76 201 97 118 127 113 90 62 143 190 247 286 64 86 235 256 9 29 66 73 32 105 133 294 50 90 53 35 95 126 127 41 358 62 105 55 20 77 114 326 337 52 63 48 36 295 312 332 343 352 352 326 266 241 348 37 52 75 90 82 67 77
348 350 355 6 18 29 43 47 45 42 42 50 79 87 72 79 106 109 93 87 96 103 123 101 9 9 6 347 340 359 23 350 301 262 197 257 333 76 118 183 260 199 174 108 79 44 67 104 99 86 72 37 37 84 107 100 47 338 352 62 62 29 108 133 116 34 73 95 92 49 299 309 328 348 347 351 15 41 67 78 73 54 48 75 92 88 82
347 350 356 5 18 30 46 53 48 42 41 47 70 90 84 83 108 122 103 84 83 77 49 53 57 31 16 17 13 9 6 2 347 332 320 100 348 351 89 80 300 249 187 132 133 137 120 118 124 108 85 59 70 75 63 67 74 344 6 40 61 76 92 97 90 52 54 64 51 18 349 340 353 9 15 34 52 59 70 78 74 60 61 74 89 97 95
347 350 355 4 19 31 46 59 56 46 42 46 57 81 88 86 101 122 110 78 69 69 38 32 43 31 329 340 13 25 24 20 12 3 13 81 103 353 334 283 181 34 346 297 162 124 103 110 117 90 76 67 82 84 72 57 58 69 46 17 343 350 73 77 73 58 56 50 357 346 340 330 348 18 41 51 55 60 69 79 81 76 76 78 82 91 94
347 351 356 4 19 31 48 65 65 56 50 50 56 78 88 79 82 118 113 81 85 117 83 355 338 4 5 343 14 22 13 12 22 23 17 25 97 114 145 220 103 64 15 292 88 80 70 70 80 85 83 72 65 80 90 80 77 95 81 25 325 5 74 75 65 61 80 193 284 315 334 347 359 20 47 58 66 72 73 78 86 81 75 77 80 85 89
347 349 355 6 19 33 55 72 75 70 63 58 59 71 79 69 65 93 106 95 92 92 83 271 297 359 29 42 28 10 7 19 38 44 39 36 53 106 142 159 96 58 87 92 79 87 94 84 75 78 75 64 76 90 89 74 79 79 74 22 297 360 46 52 60 55 47 340 293 352 32 36 21 17 25 31 59 85 86 82 85 85 80 78 77 80 92
345 347 355 10 22 37 62 82 90 90 83 71 63 65 70 67 64 74 82 84 90 66 62 180 278 334 5 24 9 4 13 33 46 50 53 58 63 69 82 100 82 44 45 47 49 71 80 68 63 75 85 77 80 85 89 89 84 75 50 351 342 47 83 102 80 71 38 251 217 144 99 97 44 8 18 4 12 87 96 91 88 91 95 97 90 84 91
341 346 357 11 24 46 72 93 110 117 110 93 74 65 62 58 55 55 52 62 97 128 143 179 273 328 2 9 2 8 23 36 43 51 54 55 58 58 57 63 72 58 50 56 59 57 61 72 90 96 107 121 85 49 26 52 62 54 10 335 351 120 154 168 125 123 218 237 210 160 116 140 190 199 12 347 348 78 103 107 107 108 116 121 118 110 96
338 348 360 12 30 63 86 99 120 141 141 126 81 57 58 51 46 47 50 60 83 102 112 105 350 351 330 326 347 8 30 37 43 51 50 47 48 48 46 52 70 83 86 86 86 79 69 96 142 181 356 121 114 54 20 50 56 35 307 296 297 218 190 185 155 139 164 235 194 156 119 132 174 177 180 332 5 91 108 104 103 114 126 126 124 132 138
343 355 4 14 38 83 103 103 115 150 161 158 82 29 45 41 34 36 44 63 87 101 104 101 71 343 286 296 348 6 14 26 40 43 41 43 42 34 33 46 58 60 68 69 74 96 94 35 25 353 332 21 101 100 89 98 81 324 294 306 319 308 278 241 188 151 132 150 155 141 138 150 153 145 128 59 70 106 113 112 119 125 131 133 133 139 146
349 357 2 14 56 112 115 100 99 141 167 171 77 45 82 66 17 23 35 60 90 103 95 97 110 336 335 336 4 1 360 12 34 33 29 38 36 25 33 47 38 31 55 66 49 82 99 26 15 7 342 15 75 106 123 100 100 312 318 343 340 326 330 350 26 85 114 115 97 76 74 105 120 115 103 98 126 129 127 136 142 141 145 149 150 153 156
350 352 356 19 105 134 123 100 90 116 150 157 100 79 113 133 16 22 42 64 84 102 94 79 70 6 342 319 337 351 357 13 33 26 17 19 16 16 31 45 40 30 61 84 72 38 50 80 50 28 355 16 66 96 90 93 122 168 354 8 345 325 329 360 62 98 124 125 105 79 52 352 225 199 168 155 155 153 146 142 143 147 150 149 149 156 162
343 339 346 81 142 141 125 102 94 105 120 122 104 82 70 57 34 32 59 72 74 91 100 97 96 49 285 264 333 354 2 12 23 23 19 8 2 10 20 20 24 30 35 48 68 23 23 92 76 32 351 14 74 88 73 74 139 267 348 356 334 326 334 358 81 122 153 149 94 113 175 211 225 214 142 138 152 161 156 146 142 145 146 143 147 162 170
329 328 360 140 147 143 128 109 105 108 109 106 96 67 45 46 47 48 70 87 83 69 59 79 112 53 330 345 350 352 6 30 35 23 19 356 356 28 20 355 12 37 26 20 51 43 18 31 60 36 344 354 49 74 66 335 335 357 12 2 344 354 27 49 68 196 263 319 349 3 174 169 155 131 128 139 149 153 149 147 148 149 149 158 181 183 178
317 290 152 144 139 133 122 110 108 110 99 84 72 44 38 56 64 63 67 69 71 66 27 44 101 120 26 33 346 326 358 45 49 355 12 354 1 34 74 30 23 29 5 10 55 46 12 20 81 59 342 355 38 51 261 277 326 357 12 1 351 28 72 82 287 295 322 357 18 25 61 103 120 135 153 163 153 136 138 147 153 155 167 199 213 200 191
251 157 141 134 128 123 114 99 93 92 74 62 53 44 62 85 83 76 75 66 62 93 152 55 70 114 129 116 262 310 357 48 20 326 352 15 7 26 71 69 47 6 353 38 50 26 352 26 75 42 1 28 66 294 259 245 272 345 347 301 271 253 254 262 256 360 30 39 56 57 58 77 88 73 38 9 33 99 129 152 155 153 189 220 220 208 211
160 143 138 136 126 106 80 65 72 72 58 60 76 72 76 98 87 63 61 51 43 55 102 105 93 149 158 150 230 320 11 50 360 358 16 23 351 357 38 60 59 329 7 29 26 354 348 20 69 71 41 352 239 268 269 234 212 271 331 300 274 268 275 268 211 102 66 50 61 69 70 76 73 59 40 352 335 53 161 190 194 188 203 217 207 203 215
142 138 139 138 114 72 40 44 79 80 76 96 106 78 44 36 50 30 7 11 16 15 46 85 97 277 89 90 8 332 23 56 24 28 37 17 340 12 34 57 86 70 35 354 304 336 36 22 49 78 55 285 276 283 281 251 228 232 243 267 288 291 246 207 125 106 92 80 103 136 122 101 109 132 125 137 244 223 220 243 247 233 222 216 207 209 214
141 137 127 110 91 107 152 142 102 100 112 107 93 72 8 20 50 31 328 347 10 352 14 68 110 190 107 95 8 315 39 67 52 46 44 38 58 65 65 63 52 64 65 340 297 46 59 11 11 54 7 315 325 324 306 303 306 305 313 343 352 355 251 185 136 137 167 191 202 205 191 164 173 180 157 149 218 240 244 250 250 244 237 229 217 213 212
142 133 96 79 105 135 138 131 124 130 122 62 38 52 40 37 61 104 349 33 32 348 4 81 116 218 139 126 129 343 26 61 93 115 112 69 148 118 90 81 75 70 68 334 313 64 89 49 17 59 49 286 296 309 331 356 357 328 327 342 347 354 63 65 41 9 246 241 244 244 227 182 166 174 186 192 215 261 278 284 272 250 235 226 220 215 214
135 122 109 123 131 128 126 120 107 103 93 45 25 45 64 31 351 48 75 67 39 288 293 77 63 15 29 90 102 69 16 14 118 119 100 17 356 73 71 44 48 78 78 278 299 69 86 67 29 29 224 240 265 295 332 351 327 306 321 345 350 25 68 60 44 34 22 310 217 213 209 191 178 182 201 217 227 229 327 353 331 289 245 228 226 223 220
130 128 126 124 117 111 105 83 55 49 63 65 45 24 11 306 344 40 76 109 176 239 6 72 110 127 40 41 87 106 70 341 44 85 82 28 353 94 88 25 35 76 126 247 328 59 66 60 30 256 248 257 276 283 295 312 292 296 322 352 11 48 67 65 55 50 56 63 65 78 217 217 205 194 189 185 153 156 159 199 291 285 272 255 243 234 225
120 120 119 111 86 57 46 38 34 41 48 61 68 39 342 351 31 51 10 280 280 77 58 21 134 111 47 26 59 89 51 10 32 75 87 65 336 67 66 36 40 100 176 288 54 62 72 169 194 228 252 272 281 273 263 269 282 293 317 351 25 54 68 69 61 53 56 68 71 68 75 71 46 21 180 189 209 234 250 259 269 280 290 282 255 236 226
110 95 84 69 29 26 32 12 360 97 75 70 122 126 141 217 203 132 152 207 236 139 160 153 112 96 67 21 44 42 19 32 61 69 74 26 17 57 69 36 264 227 36 35 51 64 204 214 218 244 271 285 279 274 274 270 272 301 344 360 24 46 37 5 3 356 339 332 340 354 20 38 39 25 286 231 236 259 281 292 293 293 293 280 251 234 226
93 43 48 43 3 355 60 7 334 49 146 190 174 152 160 177 186 186 187 184 147 120 120 117 110 107 84 337 29 72 9 28 53 53 65 61 49 51 109 202 259 48 53 48 48 59 245 248 257 269 266 244 239 251 260 258 250 243 334 335 350 11 358 335 329 322 316 313 312 311 311 309 310 320 318 287 268 275 298 311 312 303 284 255 233 228 225
98 93 96 89 360 302 111 96 344 298 193 199 191 172 166 170 181 193 194 147 109 120 133 133 111 103 81 334 11 74 47 56 64 49 64 84 76 57 212 121 65 54 56 46 11 237 226 238 252 254 239 235 244 266 283 288 291 242 192 278 311 319 314 310 308 309 310 311 310 307 300 295 298 307 312 308 308 315 319 315 308 290 252 223 218 223 225
92 69 90 100 109 340 79 167 219 212 207 217 204 180 166 160 162 159 123 115 133 138 132 103 90 93 79 47 78 58 15 53 79 38 38 83 91 330 16 55 59 120 122 136 236 243 240 245 249 245 244 252 270 291 300 307 313 278 256 277 295 294 286 280 282 289 298 304 306 304 303 302 302 302 300 299 303 312 315 307 289 259 234 226 231 237 237
118 79 84 118 171 176 180 209 200 116 27 320 230 178 141 121 109 79 28 66 120 115 103 94 94 80 27 31 76 70 360 38 72 35 34 88 94 16 28 38 332 262 167 176 210 228 234 233 227 228 238 244 241 258 276 280 267 256 261 268 278 284 283 278 276 280 291 301 303 301 303 307 307 300 291 286 285 291 301 304 286 254 237 235 243 249 248
98 101 102 122 135 158 221 198 104 58 359 345 26 63 70 92 106 106 24 51 83 97 128 136 119 104 14 6 60 60 20 49 92 55 27 54 81 123 112 99 295 265 211 204 215 224 230 229 217 213 239 249 235 235 251 253 240 238 247 257 271 289 299 297 294 297 301 301 298 298 303 308 308 299 285 273 267 270 277 283 278 267 254 247 247 247 246
63 80 102 105 103 121 237 92 89 70 6 10 59 84 93 104 113 125 309 86 90 69 52 66 81 84 62 42 54 45 334 265 113 83 61 76 156 133 107 137 213 211 205 211 220 224 227 218 181 180 221 246 242 234 245 253 252 259 273 285 294 306 314 311 307 308 311 311 307 302 300 303 307 306 296 280 269 268 272 271 263 267 287 291 276 258 247
32 55 101 133 132 151 167 137 119 130 146 138 146 170 142 123 136 195 221 93 80 59 50 64 86 63 52 52 72 134 220 44 67 73 93 212 167 119 121 209 228 220 214 226 234 227 217 199 170 176 207 237 244 239 250 268 278 284 297 311 319 322 321 316 313 315 322 329 329 319 311 311 317 320 312 293 275 267 266 263 258 261 273 279 269 253 247
58 66 60 15 85 125 133 120 108 120 138 149 172 180 136 133 187 218 131 81 81 88 124 159 99 75 78 147 195 148 86 53 53 65 166 221 161 148 174 206 215 202 194 214 231 228 216 211 205 198 206 228 252 264 275 286 292 303 321 335 332 322 316 317 322 327 330 330 330 328 326 327 328 327 320 300 271 256 256 261 265 267 269 265 256 251 253